Regional Weather Roundup
Issued by NWS

Home | Current Version | Previous Version | Graphics & Text | Print | Product List | Glossary On
Versions: 1 2 3 4 5 6 7 8 9 10 11 12 13 14 15 16 17 18 19 20 21 22 23 24 25 26 27 28 29 30 31 32 33 34 35 36 37 38 39 40 41 42 43 44 45 46 47 48 49 50
767
ASUS43 KOAX 262110
RWRNE

WEATHER ROUNDUP FOR NEBRASKA
NATIONAL WEATHER SERVICE OMAHA NE
400 PM CDT SUN MAR 26 2017

NOTES: SATELLITE DATA IS BEING USED TO AUGMENT CLOUD COVER ABOVE
       12000 FEET.
       "FAIR" INDICATES FEW OR NO CLOUDS BELOW 12,000 FEET WITH NO
       SIGNIFICANT WEATHER AND/OR OBSTRUCTIONS TO VISIBILITY.

  * THESE STATIONS DO NOT REPORT WEATHER SUCH AS RAIN...SNOW OR FOG.

NEZ001>004-019>022-054>056-262200-
NEBRASKA PANHANDLE

CITY           SKY/WX    TMP DP  RH WIND       PRES   REMARKS
SCOTTSBLUFF    CLOUDY    53  37  54 NW14      29.91R
ALLIANCE       CLOUDY    56  34  43 NE7       29.87F
CHADRON        CLOUDY    50  39  66 NE7       29.93S
KIMBALL        CLOUDY    49  39  69 N14       29.91S
SIDNEY         CLOUDY    51  36  56 VRB5      29.89F
$$

NEZ057>060-069>072-079>082-262200-
SOUTHWEST NEBRASKA

CITY           SKY/WX    TMP DP  RH WIND       PRES   REMARKS
NORTH PLATTE   CLOUDY    59  42  53 VRB3      29.85F
IMPERIAL       CLOUDY    58  41  53 N6        29.85F
LEXINGTON      MOSUNNY   53  42  67 NE3       29.86F
MCCOOK         MOSUNNY   52  42  69 SE6       29.86F
OGALLALA       MOSUNNY   57  38  48 NW13      29.86R
$$

NEZ005>010-023>029-035>040-094-262200-
NORTH CENTRAL NEBRASKA

CITY           SKY/WX    TMP DP  RH WIND       PRES   REMARKS
VALENTINE      CLOUDY    52  36  54 NE9       29.88F
AINSWORTH      MOSUNNY   52  43  71 E6        29.88S
BROKEN BOW     SUNNY     58  41  53 N7        29.85F
O`NEILL        CLOUDY    45  44  97 N3        29.91S
ORD            PTSUNNY   51  41  68 CALM      29.87F
THEDFORD       CLOUDY    60  40  46 CALM      29.85F
$$

NEZ041-046>049-061>064-073>077-083>087-262200-
SOUTH CENTRAL NEBRASKA

CITY           SKY/WX    TMP DP  RH WIND       PRES   REMARKS
GRAND ISLAND   CLOUDY    50  44  80 NE7       29.89F
AURORA         CLOUDY    48  45  87 NE7       29.89F
HASTINGS       CLOUDY    50  43  77 NE7       29.89F
HEBRON         CLOUDY    49  43  79 NE6       29.88F
HOLDREGE       CLOUDY    48  40  75 CALM      29.87S
KEARNEY *      CLOUDY    48  39  71 CALM      29.89F
YORK           CLOUDY    46  45  93 NE6       29.90F
$$

NEZ011>018-030>034-042>045-262200-
NORTHEAST NEBRASKA

CITY           SKY/WX    TMP DP  RH WIND       PRES   REMARKS
NORFOLK        CLOUDY    47  40  76 N6        29.90S
ALBION         CLOUDY    49  42  78 NW6       29.90S
BLAIR          CLOUDY    48  42  81 NW6       29.90S
FREMONT        CLOUDY    47  41  81 N5        29.91F
TEKAMAH        CLOUDY    48  41  76 NW7       29.91S
WAYNE          CLOUDY    45  42  88 N7        29.91S
$$

NEZ050>053-065>068-078-088>093-262200-
SOUTHEAST NEBRASKA

CITY           SKY/WX    TMP DP  RH WIND       PRES   REMARKS
LINCOLN        CLOUDY    48  41  76 N3        29.92F
OMAHA EPPLEY   CLOUDY    49  41  74 N9        29.90F
BEATRICE       CLOUDY    48  44  85 N6        29.89F
FALLS CITY     CLOUDY    48  42  80 N7        29.90F
NEBRASKA CITY  CLOUDY    46  41  82 CALM      29.90F
PLATTSMOUTH    CLOUDY    48  39  72 W6        29.90F
$$

NEZ044-045-051>053-067-262200-
OMAHA AREA

CITY           SKY/WX    TMP DP  RH WIND       PRES   REMARKS
OMAHA EPPLEY   CLOUDY    49  41  74 N9        29.90F
BLAIR          CLOUDY    48  42  81 NW6       29.90S
FREMONT        CLOUDY    47  41  81 N5        29.91F
MILLARD        CLOUDY    50  43  76 NW7       29.91S
OFFUTT AFB     CLOUDY    48  40  73 VRB7      29.90S
PLATTSMOUTH    CLOUDY    48  39  72 W6        29.90F
WAHOO          CLOUDY    47  43  85 N8        29.90F
$$




USA.gov is the U.S. government's official web portal to all federal, state and local government web resources and services.